Weather History for KPAE - August, 2014

Change the Weather History Date:

Friday, August 8, 2014

  Actual Average Record
Temperature  
Mean Temperature 65 °F -  
Max Temperature 75 °F 75 °F 86 °F (1981)
Min Temperature 55 °F 55 °F 45 °F (1992)
Growing Degree Days 15 (Base 50)    
Moisture  
Dew Point 50 °F    
Average Humidity 65    
Maximum Humidity 84    
Minimum Humidity 37    
Precipitation  
Precipitation 0.00 in - - ()
Sea Level Pressure  
Sea Level Pressure 30.11 in    
Wind  
Wind Speed 5 mph (North)    
Max Wind Speed 10 mph    
Max Gust Speed 18 mph    
Visibility 10 miles    
Events      
Averages and records for this station are not official NWS values.
T = Trace of Precipitation, MM = Missing Value Source: NWS Daily Summary

Daily Weather History Graph

Daily Weather History Graph

Search for Another Location

Airport or City:

Trip Planner

Search our weather history database for the weather conditions in past years. The results will help you decide how hot, cold, wet, or windy it might be!

Date:

Astronomy

Aug. 08, 2014 Rise Set
Actual Time 5:54 AM PDT 8:33 PM PDT
Civil Twilight 5:19 AM PDT 9:08 PM PDT
Nautical Twilight 4:35 AM PDT 9:53 PM PDT
Astronomical Twilight 3:42 AM PDT 10:44 PM PDT
Moon 6:50 PM PDT (8/8) 3:30 AM PDT (8/8)
Length of Visible Light 15h 48m
Length of Day
14h 38m
Waxing Gibbous, 94% of the Moon is Illuminated
Aug 8
Waxing Gibbous
Aug 10
Full
Aug 17
Last Quarter
Aug 25
New
Sep 2
First Quarter

Hourly Weather History & Observations

Time (PDT) Temp. Dew Point Humidity Pressure Visibility Wind Dir Wind Speed Gust Speed Precip Events Conditions
12:53 AM 57.0 °F 48.9 °F 74% 30.06 in 10.0 mi NNE 5.8 mph - N/A   Clear
1:53 AM 57.0 °F 51.1 °F 81% 30.07 in 10.0 mi NNE 5.8 mph - N/A   Clear
2:53 AM 57.0 °F 51.1 °F 81% 30.07 in 10.0 mi NNE 5.8 mph - N/A   Scattered Clouds
3:53 AM 57.0 °F 51.1 °F 81% 30.08 in 10.0 mi NE 4.6 mph - N/A   Clear
4:53 AM 57.0 °F 51.1 °F 81% 30.08 in 10.0 mi NE 5.8 mph - N/A   Mostly Cloudy
5:53 AM 55.9 °F 51.1 °F 84% 30.09 in 10.0 mi NE 3.5 mph - N/A   Mostly Cloudy
6:53 AM 57.0 °F 51.1 °F 81% 30.10 in 10.0 mi Variable 4.6 mph - N/A   Partly Cloudy
7:53 AM 57.9 °F 51.1 °F 78% 30.11 in 10.0 mi Calm Calm - N/A   Scattered Clouds
8:53 AM 61.0 °F 51.1 °F 70% 30.12 in 10.0 mi North 3.5 mph - N/A   Scattered Clouds
9:53 AM 62.1 °F 52.0 °F 70% 30.13 in 10.0 mi Variable 3.5 mph - N/A   Partly Cloudy
10:53 AM 64.0 °F 53.1 °F 67% 30.14 in 10.0 mi WNW 4.6 mph - N/A   Partly Cloudy
11:53 AM 66.9 °F 52.0 °F 59% 30.14 in 10.0 mi WSW 5.8 mph - N/A   Clear
12:53 PM 68.0 °F 48.9 °F 50% 30.13 in 10.0 mi West 6.9 mph - N/A   Clear
1:53 PM 71.1 °F 48.9 °F 45% 30.13 in 10.0 mi WSW 5.8 mph - N/A   Clear
2:53 PM 72.0 °F 48.0 °F 43% 30.13 in 10.0 mi Variable 4.6 mph - N/A   Clear
3:53 PM 73.0 °F 48.0 °F 41% 30.11 in 10.0 mi Variable 4.6 mph - N/A   Clear
4:53 PM 75.0 °F 46.9 °F 37% 30.10 in 10.0 mi North 4.6 mph - N/A   Clear
5:53 PM 72.0 °F 50.0 °F 46% 30.11 in 10.0 mi Variable 6.9 mph - N/A   Clear
6:53 PM 69.1 °F 51.1 °F 53% 30.11 in 10.0 mi North 6.9 mph 18.4 mph N/A   Clear
7:53 PM 63.0 °F 51.1 °F 65% 30.11 in 10.0 mi North 8.1 mph - N/A   Clear
8:53 PM 61.0 °F 48.9 °F 64% 30.11 in 10.0 mi North 10.4 mph 18.4 mph N/A   Clear
10:53 PM 60.1 °F 48.9 °F 67% 30.12 in 10.0 mi North 8.1 mph - N/A   Clear
11:53 PM 60.1 °F 48.9 °F 67% 30.12 in 10.0 mi NNE 4.6 mph - N/A   Clear